Location: Makanda
(37.6176°N, 89.2090°W)
Time: 13:51:51
(UTC+00:00)

BREEZE-M DEB (TANK) - Pass Details

Date: 23 September 2019
Orbit: 319 x 16614 km, 49.4° (Epoch: 18 October)

Event Time Altitude Azimuth Distance (km) Brightness Sun altitude
Exits shadow 08:41:18 39° 66° (ENE) 1,246 4.4 -35.4°
Drops below altitude 10° 08:48:47 10° 108° (ESE) 4,483 7.3 -34.2°
Sets 08:56:02 0° 114° (ESE) 7,480 8.5 -32.9°
